{"data":{"norad_id":57847,"intl_designator":"2023-141H","name":"STARLINK-30416","alt_names":[],"object_type":"PAYLOAD","status":"ACTIVE","operator":null,"country":"US","launch_date":"2023-09-12","launch_site_code":"AFWTR","launch_vehicle":null,"mission":null,"orbit_class":"UNKNOWN","rcs_meters":null,"size_class":null,"mass_kg":null,"dimensions":null,"purposes":["comms"],"wikipedia_slug":null,"has_3d_model":false,"image_url":null,"decayed_at":null,"tle_current":{"epoch":"2026-05-24T19:30:47.021472Z","epoch_age_seconds":91994,"freshness":"FRESH","line1":"1 57847U 23141H   26144.81304423 -.00001200  00000+0 -26898-4 0  9995","line2":"2 57847  53.1608 290.4414 0001284  84.2859 275.8288 15.31710438151988","mean_motion":15.31710438,"eccentricity":0.0001284,"inclination_deg":53.1608,"raan_deg":290.4414,"arg_perigee_deg":84.2859,"mean_anomaly_deg":275.8288,"bstar":-2.6898e-5,"rev_number":15198,"period_min":94.012547298447,"perigee_km":469.82948845647,"apogee_km":471.58827207852,"semimajor_km":6848.8458802675,"source":"CELESTRAK","updated_at":"2026-05-25T13:38:18.414387Z"}}}